Time,TemperatureF,DewpointF,PressureIn,WindDirection,WindDirectionDegrees,WindSpeedMPH,WindSpeedGustMPH,Humidity,HourlyPrecipIn,Conditions,Clouds,dailyrainin,SoftwareType,DateUTC
2013-02-11 00:08:00,44.3,35.0,29.56,SSW,200,7.0,-999.0,71,-99.99,,,0.40,weatherlink.com 1.10,2013-02-11 06:08:00,
2013-02-11 00:23:00,43.3,34.0,29.57,WSW,253,10.0,-999.0,70,-99.99,,,0.00,weatherlink.com 1.10,2013-02-11 06:23:00,
2013-02-11 00:38:00,42.4,33.0,29.57,West,269,8.0,-999.0,70,-99.99,,,0.00,weatherlink.com 1.10,2013-02-11 06:38:00,
2013-02-11 00:53:00,42.1,33.0,29.57,WSW,249,6.0,-999.0,70,-99.99,,,0.00,weatherlink.com 1.10,2013-02-11 06:53:00,
2013-02-11 01:08:00,41.5,34.0,29.57,SSE,166,5.0,-999.0,74,-99.99,,,0.00,weatherlink.com 1.10,2013-02-11 07:08:00,
2013-02-11 01:23:00,41.1,33.0,29.57,West,265,8.0,-999.0,73,-99.99,,,0.00,weatherlink.com 1.10,2013-02-11 07:23:00,
2013-02-11 01:38:00,41.2,32.0,29.58,West,270,8.0,-999.0,71,-99.99,,,0.00,weatherlink.com 1.10,2013-02-11 07:38:00,
2013-02-11 01:53:00,40.0,33.0,29.60,SW,223,7.0,-999.0,77,-99.99,,,0.00,weatherlink.com 1.10,2013-02-11 07:53:00,
2013-02-11 02:08:00,39.3,32.0,29.61,West,259,6.0,-999.0,76,-99.99,,,0.00,weatherlink.com 1.10,2013-02-11 08:08:00,
2013-02-11 02:23:00,38.8,32.0,29.61,WSW,250,5.0,-999.0,77,-99.99,,,0.00,weatherlink.com 1.10,2013-02-11 08:23:00,
2013-02-11 02:38:00,38.1,30.0,29.62,WSW,258,10.0,-999.0,73,-99.99,,,0.00,weatherlink.com 1.10,2013-02-11 08:38:00,
2013-02-11 02:53:00,37.3,28.0,29.62,WSW,242,18.0,-999.0,70,-99.99,,,0.00,weatherlink.com 1.10,2013-02-11 08:53:00,
2013-02-11 03:08:00,37.2,29.0,29.62,SW,223,10.0,-999.0,71,-99.99,,,0.00,weatherlink.com 1.10,2013-02-11 09:08:00,
2013-02-11 03:23:00,36.6,29.0,29.63,WSW,257,6.0,-999.0,75,-99.99,,,0.00,weatherlink.com 1.10,2013-02-11 09:23:00,
2013-02-11 03:38:00,36.3,29.0,29.64,West,271,4.0,-999.0,74,-99.99,,,0.00,weatherlink.com 1.10,2013-02-11 09:38:00,
2013-02-11 03:53:00,35.9,28.0,29.64,SW,236,8.0,-999.0,72,-99.99,,,0.00,weatherlink.com 1.10,2013-02-11 09:53:00,
2013-02-11 04:08:00,35.5,27.0,29.65,WSW,248,8.0,-999.0,72,-99.99,,,0.00,weatherlink.com 1.10,2013-02-11 10:08:00,
2013-02-11 04:23:00,35.4,27.0,29.66,WSW,244,8.0,-999.0,72,-99.99,,,0.00,weatherlink.com 1.10,2013-02-11 10:23:00,
2013-02-11 04:38:00,35.3,27.0,29.66,West,271,4.0,-999.0,72,-99.99,,,0.00,weatherlink.com 1.10,2013-02-11 10:38:00,
2013-02-11 04:53:00,35.2,28.0,29.66,SW,233,10.0,-999.0,74,-99.99,,,0.00,weatherlink.com 1.10,2013-02-11 10:53:00,
2013-02-11 05:08:00,35.0,28.0,29.67,WSW,250,2.0,-999.0,76,-99.99,,,0.00,weatherlink.com 1.10,2013-02-11 11:08:00,
2013-02-11 05:23:00,34.9,28.0,29.67,West,264,4.0,-999.0,77,-99.99,,,0.00,weatherlink.com 1.10,2013-02-11 11:23:00,
2013-02-11 05:38:00,34.8,28.0,29.68,SW,216,7.0,-999.0,77,-99.99,,,0.00,weatherlink.com 1.10,2013-02-11 11:38:00,
2013-02-11 05:53:00,34.8,27.0,29.69,WSW,253,10.0,-999.0,73,-99.99,,,0.00,weatherlink.com 1.10,2013-02-11 11:53:00,
2013-02-11 06:08:00,34.7,27.0,29.69,West,259,3.0,-999.0,72,-99.99,,,0.00,weatherlink.com 1.10,2013-02-11 12:08:00,
2013-02-11 06:23:00,34.6,26.0,29.70,WSW,250,7.0,-999.0,71,-99.99,,,0.00,weatherlink.com 1.10,2013-02-11 12:23:00,
2013-02-11 06:38:00,34.5,26.0,29.71,West,273,5.0,-999.0,72,-99.99,,,0.00,weatherlink.com 1.10,2013-02-11 12:38:00,
2013-02-11 06:53:00,34.4,27.0,29.71,WSW,245,1.0,-999.0,74,-99.99,,,0.00,weatherlink.com 1.10,2013-02-11 12:53:00,
2013-02-11 07:08:00,34.3,26.0,29.73,West,274,5.0,-999.0,71,-99.99,,,0.00,weatherlink.com 1.10,2013-02-11 13:08:00,
2013-02-11 07:23:00,34.4,26.0,29.74,WSW,246,4.0,-999.0,71,-99.99,,,0.00,weatherlink.com 1.10,2013-02-11 13:23:00,
2013-02-11 07:38:00,34.3,26.0,29.74,NW,306,4.0,-999.0,71,-99.99,,,0.00,weatherlink.com 1.10,2013-02-11 13:38:00,
2013-02-11 07:53:00,34.2,26.0,29.76,West,279,3.0,-999.0,71,-99.99,,,0.00,weatherlink.com 1.10,2013-02-11 13:53:00,
2013-02-11 08:08:00,34.2,26.0,29.76,West,277,7.0,-999.0,72,-99.99,,,0.00,weatherlink.com 1.10,2013-02-11 14:08:00,
2013-02-11 08:23:00,34.2,27.0,29.77,WSW,242,2.0,-999.0,74,-99.99,,,0.00,weatherlink.com 1.10,2013-02-11 14:23:00,
2013-02-11 08:38:00,33.9,27.0,29.77,WSW,243,2.0,-999.0,75,-99.99,,,0.00,weatherlink.com 1.10,2013-02-11 14:38:00,
2013-02-11 08:53:00,33.9,27.0,29.79,SW,231,7.0,-999.0,75,-99.99,,,0.00,weatherlink.com 1.10,2013-02-11 14:53:00,
2013-02-11 09:08:00,33.9,27.0,29.79,NW,309,5.0,-999.0,75,-99.99,,,0.00,weatherlink.com 1.10,2013-02-11 15:08:00,
2013-02-11 09:23:00,34.0,26.0,29.80,WSW,252,4.0,-999.0,72,-99.99,,,0.00,weatherlink.com 1.10,2013-02-11 15:23:00,
2013-02-11 09:38:00,34.4,26.0,29.80,West,269,1.0,-999.0,70,-99.99,,,0.00,weatherlink.com 1.10,2013-02-11 15:38:00,
2013-02-11 09:53:00,34.2,26.0,29.81,WNW,296,4.0,-999.0,71,-99.99,,,0.00,weatherlink.com 1.10,2013-02-11 15:53:00,
2013-02-11 10:08:00,34.3,27.0,29.81,WSW,252,3.0,-999.0,74,-99.99,,,0.00,weatherlink.com 1.10,2013-02-11 16:08:00,
2013-02-11 10:23:00,34.6,26.0,29.82,WSW,252,4.0,-999.0,71,-99.99,,,0.00,weatherlink.com 1.10,2013-02-11 16:23:00,
2013-02-11 10:38:00,34.7,27.0,29.83,West,261,3.0,-999.0,74,-99.99,,,0.00,weatherlink.com 1.10,2013-02-11 16:38:00,
2013-02-11 10:53:00,34.9,27.0,29.84,NW,311,6.0,-999.0,72,-99.99,,,0.00,weatherlink.com 1.10,2013-02-11 16:53:00,
2013-02-11 11:08:00,35.1,26.0,29.84,West,273,7.0,-999.0,69,-99.99,,,0.00,weatherlink.com 1.10,2013-02-11 17:08:00,
2013-02-11 11:23:00,35.4,26.0,29.85,WNW,286,6.0,-999.0,69,-99.99,,,0.00,weatherlink.com 1.10,2013-02-11 17:23:00,
2013-02-11 11:38:00,35.3,26.0,29.85,WNW,292,4.0,-999.0,70,-99.99,,,0.00,weatherlink.com 1.10,2013-02-11 17:38:00,
2013-02-11 11:53:00,35.8,27.0,29.85,West,263,4.0,-999.0,71,-99.99,,,0.00,weatherlink.com 1.10,2013-02-11 17:53:00,
2013-02-11 12:08:00,35.9,27.0,29.85,WNW,296,2.0,-999.0,71,-99.99,,,0.00,weatherlink.com 1.10,2013-02-11 18:08:00,
2013-02-11 12:23:00,36.3,26.0,29.86,West,271,7.0,-999.0,66,-99.99,,,0.00,weatherlink.com 1.10,2013-02-11 18:23:00,
2013-02-11 12:38:00,37.1,28.0,29.86,NW,311,5.0,-999.0,69,-99.99,,,0.00,weatherlink.com 1.10,2013-02-11 18:38:00,
2013-02-11 12:53:00,37.4,27.0,29.85,WNW,295,5.0,-999.0,66,-99.99,,,0.00,weatherlink.com 1.10,2013-02-11 18:53:00,
2013-02-11 13:08:00,38.4,28.0,29.86,WSW,248,4.0,-999.0,66,-99.99,,,0.00,weatherlink.com 1.10,2013-02-11 19:08:00,
2013-02-11 13:23:00,37.8,28.0,29.86,WNW,288,4.0,-999.0,69,-99.99,,,0.00,weatherlink.com 1.10,2013-02-11 19:23:00,
2013-02-11 13:38:00,38.7,28.0,29.86,WNW,294,8.0,-999.0,65,-99.99,,,0.00,weatherlink.com 1.10,2013-02-11 19:38:00,
2013-02-11 13:53:00,37.0,27.0,29.87,West,269,5.0,-999.0,68,-99.99,,,0.00,weatherlink.com 1.10,2013-02-11 19:53:00,
2013-02-11 14:08:00,39.1,28.0,29.87,West,269,6.0,-999.0,65,-99.99,,,0.00,weatherlink.com 1.10,2013-02-11 20:08:00,
2013-02-11 14:23:00,39.7,29.0,29.88,WNW,296,6.0,-999.0,66,-99.99,,,0.00,weatherlink.com 1.10,2013-02-11 20:23:00,
2013-02-11 14:38:00,39.1,29.0,29.88,West,274,5.0,-999.0,67,-99.99,,,0.00,weatherlink.com 1.10,2013-02-11 20:38:00,
2013-02-11 14:53:00,38.9,29.0,29.89,West,263,2.0,-999.0,67,-99.99,,,0.00,weatherlink.com 1.10,2013-02-11 20:53:00,
2013-02-11 15:08:00,39.9,30.0,29.89,WNW,300,9.0,-999.0,67,-99.99,,,0.00,weatherlink.com 1.10,2013-02-11 21:08:00,
2013-02-11 15:23:00,38.5,28.0,29.90,West,279,7.0,-999.0,67,-99.99,,,0.00,weatherlink.com 1.10,2013-02-11 21:23:00,
2013-02-11 15:38:00,39.2,29.0,29.90,WNW,283,5.0,-999.0,67,-99.99,,,0.00,weatherlink.com 1.10,2013-02-11 21:38:00,
2013-02-11 15:53:00,39.8,30.0,29.91,West,276,4.0,-999.0,67,-99.99,,,0.00,weatherlink.com 1.10,2013-02-11 21:53:00,
2013-02-11 16:08:00,39.0,29.0,29.91,WNW,292,4.0,-999.0,67,-99.99,,,0.00,weatherlink.com 1.10,2013-02-11 22:08:00,
2013-02-11 16:23:00,39.0,30.0,29.91,NW,307,5.0,-999.0,69,-99.99,,,0.00,weatherlink.com 1.10,2013-02-11 22:23:00,
2013-02-11 16:38:00,38.2,29.0,29.91,WNW,287,3.0,-999.0,69,-99.99,,,0.00,weatherlink.com 1.10,2013-02-11 22:38:00,
2013-02-11 16:53:00,37.3,29.0,29.92,WNW,297,3.0,-999.0,71,-99.99,,,0.00,weatherlink.com 1.10,2013-02-11 22:53:00,
2013-02-11 17:08:00,36.7,28.0,29.93,West,268,2.0,-999.0,72,-99.99,,,0.00,weatherlink.com 1.10,2013-02-11 23:08:00,
2013-02-11 17:23:00,36.0,28.0,29.94,WNW,295,2.0,-999.0,74,-99.99,,,0.00,weatherlink.com 1.10,2013-02-11 23:23:00,
2013-02-11 17:38:00,35.3,28.0,29.95,WNW,284,0.0,-999.0,76,-99.99,,,0.00,weatherlink.com 1.10,2013-02-11 23:38:00,
2013-02-11 17:53:00,34.8,28.0,29.95,WNW,299,3.0,-999.0,77,-99.99,,,0.00,weatherlink.com 1.10,2013-02-11 23:53:00,
2013-02-11 18:08:00,34.2,28.0,29.96,WNW,298,1.0,-999.0,79,-99.99,,,0.00,weatherlink.com 1.10,2013-02-12 00:08:00,
2013-02-11 18:23:00,33.8,28.0,29.96,WNW,298,0.0,-999.0,80,-99.99,,,0.00,weatherlink.com 1.10,2013-02-12 00:23:00,
2013-02-11 18:38:00,33.7,28.0,29.97,WNW,298,2.0,-999.0,79,-99.99,,,0.00,weatherlink.com 1.10,2013-02-12 00:38:00,
2013-02-11 18:53:00,33.5,28.0,29.98,WNW,292,2.0,-999.0,79,-99.99,,,0.00,weatherlink.com 1.10,2013-02-12 00:53:00,
2013-02-11 19:08:00,33.0,27.0,29.98,WNW,292,1.0,-999.0,80,-99.99,,,0.00,weatherlink.com 1.10,2013-02-12 01:08:00,
2013-02-11 19:23:00,32.7,28.0,29.98,WNW,284,1.0,-999.0,81,-99.99,,,0.00,weatherlink.com 1.10,2013-02-12 01:23:00,
2013-02-11 19:38:00,32.3,27.0,29.98,WNW,285,2.0,-999.0,82,-99.99,,,0.00,weatherlink.com 1.10,2013-02-12 01:38:00,
2013-02-11 19:53:00,32.1,27.0,29.99,WNW,296,2.0,-999.0,80,-99.99,,,0.00,weatherlink.com 1.10,2013-02-12 01:53:00,
2013-02-11 20:08:00,31.9,26.0,29.99,WNW,284,4.0,-999.0,80,-99.99,,,0.00,weatherlink.com 1.10,2013-02-12 02:08:00,
2013-02-11 20:23:00,31.6,26.0,29.99,WNW,288,2.0,-999.0,80,-99.99,,,0.00,weatherlink.com 1.10,2013-02-12 02:23:00,
2013-02-11 20:38:00,31.2,26.0,30.00,NW,304,2.0,-999.0,81,-99.99,,,0.00,weatherlink.com 1.10,2013-02-12 02:38:00,
2013-02-11 20:53:00,30.8,26.0,30.00,WNW,286,1.0,-999.0,82,-99.99,,,0.00,weatherlink.com 1.10,2013-02-12 02:53:00,
2013-02-11 21:08:00,30.6,26.0,30.01,WNW,290,1.0,-999.0,82,-99.99,,,0.00,weatherlink.com 1.10,2013-02-12 03:08:00,
2013-02-11 21:23:00,30.3,26.0,30.01,WNW,290,3.0,-999.0,83,-99.99,,,0.00,weatherlink.com 1.10,2013-02-12 03:23:00,
2013-02-11 21:38:00,30.1,26.0,30.01,WNW,294,5.0,-999.0,83,-99.99,,,0.00,weatherlink.com 1.10,2013-02-12 03:38:00,
2013-02-11 21:53:00,30.2,26.0,30.02,WSW,251,0.0,-999.0,83,-99.99,,,0.00,weatherlink.com 1.10,2013-02-12 03:53:00,
2013-02-11 22:08:00,30.0,25.0,30.02,West,261,0.0,-999.0,83,-99.99,,,0.00,weatherlink.com 1.10,2013-02-12 04:08:00,
2013-02-11 22:23:00,29.8,26.0,30.02,West,261,0.0,-999.0,84,-99.99,,,0.00,weatherlink.com 1.10,2013-02-12 04:23:00,
2013-02-11 22:38:00,29.5,26.0,30.02,West,262,0.0,-999.0,85,-99.99,,,0.00,weatherlink.com 1.10,2013-02-12 04:38:00,
2013-02-11 22:53:00,29.3,25.0,30.03,WSW,254,0.0,-999.0,85,-99.99,,,0.00,weatherlink.com 1.10,2013-02-12 04:53:00,
2013-02-11 23:08:00,29.1,25.0,30.04,WSW,252,0.0,-999.0,86,-99.99,,,0.00,weatherlink.com 1.10,2013-02-12 05:08:00,
2013-02-11 23:23:00,29.1,25.0,30.04,WSW,252,0.0,-999.0,86,-99.99,,,0.00,weatherlink.com 1.10,2013-02-12 05:23:00,
2013-02-11 23:38:00,29.1,25.0,30.04,WSW,253,1.0,-999.0,86,-99.99,,,0.00,weatherlink.com 1.10,2013-02-12 05:38:00,
2013-02-11 23:53:00,28.9,25.0,30.04,WSW,254,0.0,-999.0,86,-99.99,,,0.00,weatherlink.com 1.10,2013-02-12 05:53:00,